Tracking 19242 objects as of 19-Sep-2018
HD Live streaming from Space Station
objects crossing your sky now

FENGYUN 1C DEB

Track FENGYUN 1C DEB now!
10-day predictions


NORAD ID: 40999
Int'l Code: 1999-025EXD
Perigee: 854.7 km
Apogee: 945.8 km
Inclination: 99.3 °
Period: 102.8 minutes
Semi major axis: 7271 km
RCS: Unknown
Launch date: May 10, 1999
Source: People's Republic of China (PRC)
Launch site: Taiyaun Space Center, China (TSC)

Note: This is SATELLITE DEBRIS
aabbcc
Your satellite tracking list
Your tracking list is empty




NASA's NSSDC Master Catalog

Two Line Element Set (TLE):
1 40999U 99025EXD 18261.20187902  .00000505  00000-0  36726-3 0  9990
2 40999  99.2830 254.7696 0062666 323.7153  35.9769 14.00199027445435
Source of the keplerian elements: AFSPC